Poughkeepsie, NY

1:49 PM EDT on July 21, 2017 (GMT -0400)
Dutchess County

Weather History for KPOU - September, 2012

Change the Weather History Date:

Sunday, September 23, 2012

  Actual Average Record
Temperature  
Mean Temperature 57 °F 60 °F  
Max Temperature 68 °F 72 °F 90 °F (1959)
Min Temperature 45 °F 48 °F 32 °F (1953)
Degree Days  
Heating Degree Days 8 6  
Month to date heating degree days 58 73  
Since 1 July heating degree days 60 90  
Cooling Degree Days 0 1  
Month to date cooling degree days 78 59  
Year to date cooling degree days 889 663  
Growing Degree Days 7 (Base 50)    
Moisture  
Dew Point 50 °F    
Average Humidity 69    
Maximum Humidity 100    
Minimum Humidity 37    
Precipitation  
Precipitation 0.00 in 0.15 in 1.46 in (2003)
Month to date precipitation 4.54 3.22  
Year to date precipitation 26.72 34.00  
Sea Level Pressure  
Sea Level Pressure 29.96 in    
Wind  
Wind Speed 4 mph (NW)    
Max Wind Speed 14 mph    
Max Gust Speed 18 mph    
Visibility 6 miles    
Events Fog    
T = Trace of Precipitation, MM = Missing Value Source: NWS Daily Summary

Daily Weather History Graph

Daily Weather History Graph

Search for Another Location

Airport or City:

Trip Planner

Search our weather history database for the weather conditions in past years. The results will help you decide how hot, cold, wet, or windy it might be!

Date:

Astronomy

Sep. 23, 2012 Rise Set
Actual Time 6:44 AM EDT 6:50 PM EDT
Civil Twilight 6:16 AM EDT 7:17 PM EDT
Nautical Twilight 5:44 AM EDT 7:50 PM EDT
Astronomical Twilight 5:11 AM EDT 8:23 PM EDT
Moon 2:53 PM EDT (9/23) No Moon Set
Length of Visible Light 13h 01m
Length of Day
12h 05m
First Quarter, 60% of the Moon is Illuminated
Sep 23
First Quarter
Sep 29
Full
Oct 8
Last Quarter
Oct 15
New
Oct 21
First Quarter

Hourly Weather History & Observations

Time (EDT) Temp. Dew Point Humidity Pressure Visibility Wind Dir Wind Speed Gust Speed Precip Events Conditions
12:08 AM 60.8 °F 59.0 °F 94% 29.85 in 6.0 mi Calm Calm - 0.01 in   Overcast
12:53 AM 62.1 °F 59.0 °F 90% 29.85 in 7.0 mi Calm Calm - 0.01 in   Overcast
1:23 AM 60.8 °F 59.0 °F 94% 29.86 in 1.5 mi Calm Calm - N/A   Mostly Cloudy
1:29 AM 60.8 °F 57.2 °F 88% 29.86 in 0.8 mi Calm Calm - N/A   Mostly Cloudy
1:33 AM 60.8 °F 57.2 °F 88% 29.86 in 1.0 mi SE 3.5 mph - N/A   Scattered Clouds
1:50 AM 59.0 °F 57.2 °F 94% 29.86 in 0.8 mi Calm Calm - N/A   Scattered Clouds
1:53 AM 57.9 °F 57.0 °F 97% 29.85 in 0.5 mi Calm Calm - N/A Fog Fog
2:01 AM 57.2 °F 57.2 °F 100% 29.87 in 0.2 mi Calm Calm - N/A Fog Fog
2:06 AM 57.2 °F 57.2 °F 100% 29.86 in 0.2 mi Calm Calm - N/A Fog Fog
2:53 AM 55.9 °F 54.0 °F 93% 29.86 in 0.2 mi Calm Calm - N/A Fog Fog
3:53 AM 55.9 °F 55.0 °F 97% 29.87 in 0.2 mi Calm Calm - N/A Fog Fog
4:50 AM 57.2 °F 55.4 °F 94% 29.91 in 0.8 mi WSW 3.5 mph - N/A   Overcast
4:53 AM 57.0 °F 55.9 °F 96% 29.90 in 0.8 mi West 4.6 mph - N/A   Overcast
5:11 AM 57.2 °F 55.4 °F 94% 29.92 in 1.5 mi Calm Calm - N/A   Overcast
5:23 AM 57.2 °F 55.4 °F 94% 29.93 in 3.0 mi NW 4.6 mph - N/A   Overcast
5:33 AM 57.2 °F 55.4 °F 94% 29.93 in 8.0 mi Calm Calm - N/A   Mostly Cloudy
5:42 AM 55.4 °F 55.4 °F 100% 29.94 in 10.0 mi NNW 3.5 mph - N/A   Scattered Clouds
5:53 AM 55.9 °F 54.0 °F 93% 29.94 in 10.0 mi Calm Calm - N/A   Scattered Clouds
6:53 AM 55.0 °F 51.1 °F 86% 29.98 in 10.0 mi NW 4.6 mph - N/A   Mostly Cloudy
7:53 AM 55.0 °F 46.9 °F 74% 30.01 in 10.0 mi Variable 3.5 mph - N/A   Clear
8:53 AM 57.0 °F 46.9 °F 69% 30.03 in 10.0 mi NW 4.6 mph - N/A   Clear
9:53 AM 60.1 °F 46.9 °F 62% 30.04 in 10.0 mi NNW 5.8 mph - N/A   Clear
10:53 AM 62.1 °F 44.1 °F 52% 30.04 in 10.0 mi North 5.8 mph - N/A   Partly Cloudy
11:53 AM 63.0 °F 41.0 °F 45% 30.04 in 10.0 mi Variable 5.8 mph - N/A   Clear
12:53 PM 64.9 °F 42.1 °F 43% 30.03 in 10.0 mi WNW 9.2 mph - N/A   Partly Cloudy
1:53 PM 66.9 °F 42.1 °F 40% 30.02 in 10.0 mi NW 9.2 mph - N/A   Partly Cloudy
2:53 PM 64.9 °F 41.0 °F 42% 30.01 in 10.0 mi North 5.8 mph - N/A   Scattered Clouds
3:53 PM 64.0 °F 39.9 °F 41% 30.02 in 10.0 mi WNW 8.1 mph - N/A   Scattered Clouds
4:53 PM 66.0 °F 39.0 °F 37% 30.02 in 10.0 mi West 8.1 mph - N/A   Scattered Clouds
5:53 PM 64.0 °F 39.9 °F 41% 30.03 in 10.0 mi West 5.8 mph - N/A   Clear
6:53 PM 60.1 °F 41.0 °F 49% 30.05 in 10.0 mi WNW 5.8 mph - N/A   Mostly Cloudy
7:53 PM 53.1 °F 45.0 °F 74% 30.07 in 10.0 mi Calm Calm - N/A   Clear
8:53 PM 50.0 °F 46.0 °F 86% 30.08 in 10.0 mi Calm Calm - N/A   Clear
9:53 PM 48.0 °F 45.0 °F 89% 30.09 in 10.0 mi Calm Calm - N/A   Clear
10:53 PM 48.0 °F 44.1 °F 86% 30.11 in 10.0 mi Calm Calm - N/A   Clear
11:53 PM 46.0 °F 43.0 °F 89% 30.10 in 10.0 mi Calm Calm - N/A   Partly Cloudy